Waarnemingen

Advertentie
Mijn weer
Gueret-St Laurent, Frankrijk (7361): temperatuur & dauwpunt: 17.05.2018 01:00:00 - 23.05.2018 01:00:00 (CEST)Gueret-St Laurent, Frankrijk (7361): temperatuur 5cm: 17.05.2018 01:00:00 - 23.05.2018 01:00:00 (CEST)Gueret-St Laurent, Frankrijk (7361): temperatuur -20cm & temperatuur -100cm: 17.05.2018 01:00:00 - 23.05.2018 01:00:00 (CEST)Gueret-St Laurent, Frankrijk (7361): windsnelheid & windstoten: 17.05.2018 01:00:00 - 23.05.2018 01:00:00 (CEST)Gueret-St Laurent, Frankrijk (7361): windrichting: 17.05.2018 01:00:00 - 23.05.2018 01:00:00 (CEST)Gueret-St Laurent, Frankrijk (7361): luchtdruk: 17.05.2018 01:00:00 - 23.05.2018 01:00:00 (CEST)Gueret-St Laurent, Frankrijk (7361): zicht: 17.05.2018 01:00:00 - 23.05.2018 01:00:00 (CEST)Gueret-St Laurent, Frankrijk (7361): Zonneschijnduur: 17.05.2018 01:00:00 - 23.05.2018 01:00:00 (CEST)Gueret-St Laurent, Frankrijk (7361): neerslag: 17.05.2018 01:00:00 - 23.05.2018 01:00:00 (CEST)
Datum & Tijd tt [°C] td [°C] tt 5cm [°C] tt -20cm [°C] tt -100cm [°C] ff [km/u] ff [kn] fx [km/u] fx [kn] dd ppp [hPa] vv [km] sd [min] rr [mm]
23.05.2018 01:00:00 11,7 10,9 10,4 16,4 13,5 4 2 8 4 O 1016,7 16 0 0,0
23.05.2018 00:00:00 11,6 10,8 9,7 16,4 13,5 3 1 8 4 O 1016,9 5 0 0,0
22.05.2018 23:00:00 12,3 11,4 10,9 16,4 13,5 2 1 13 7 Z 1016,8 14 0 0,2
22.05.2018 22:00:00 12,8 11,9 12,4 16,3 13,5 4 2 13 7 OZO 1015,9 13 0 1,0
22.05.2018 21:00:00 12,8 11,4 11,7 16,2 13,5 5 3 41 22 NW 1015,9 9 0 10,7
22.05.2018 20:00:00 18,2 11,3 17,4 16,1 13,5 4 2 9 5 ZW 1013,6 20 1 0,0
22.05.2018 19:00:00 21,3 10,7 20,9 16,1 13,5 4 2 13 7 O 1012,5 19 28 0,0
22.05.2018 18:00:00 21,4 11,7 21,4 16,0 13,5 3 2 11 6 OZO 1012,5 20 14 0,0
22.05.2018 17:00:00 21,0 11,9 22,9 15,9 13,5 2 1 9 5 ZZO 1012,5 20 0 0,0
22.05.2018 16:00:00 21,4 10,5 22,7 15,8 13,5 3 2 10 5 ZW 1012,6 20 5 0,0
22.05.2018 15:00:00 20,3 11,5 23,9 15,8 13,5 4 2 14 8 N 1012,8 20 0 0,0
22.05.2018 14:00:00 20,8 10,0 22,8 15,7 13,5 3 2 12 6 NNW 1012,9 20 0 0,0
22.05.2018 13:00:00 20,8 10,6 25,1 15,7 13,4 4 2 15 8 NNO 1013,0 20 40 0,0
22.05.2018 12:00:00 20,0 12,0 27,5 15,8 13,5 6 3 12 6 WNW 1013,2 20 60 0,0
22.05.2018 11:00:00 18,9 11,9 22,7 15,9 13,5 2 1 7 4 WNW 1013,1 18 56 0,0
22.05.2018 10:00:00 15,9 13,0 17,4 16,0 13,4 2 1 8 4 NNW 1013,7 20 47 0,0
22.05.2018 09:00:00 11,9 11,3 9,8 16,0 13,4 4 2 12 6 OZO 1014,1 20 16 0,0
22.05.2018 08:00:00 9,2 8,6 7,8 16,1 13,4 6 3 11 6 OZO 1014,2 20 20 0,0
22.05.2018 07:00:00 8,4 8,0 4,1 16,1 13,4 4 2 9 5 OZO 1013,9 16 23 0,0
22.05.2018 06:00:00 7,0 6,3 4,3 16,2 13,4 3 1 5 3 OZO 1014,0 0,2 0 0,0
22.05.2018 05:00:00 8,5 7,9 4,8 16,3 13,4 4 2 6 3 OZO 1013,5 4,5 0 0,0
22.05.2018 04:00:00 8,6 7,7 6,2 16,3 13,4 4 2 9 5 ZO 1013,5 3,8 0 0,0
22.05.2018 03:00:00 9,6 8,8 7,3 16,3 13,4 6 3 10 5 O 1013,3 14 0 0,0
22.05.2018 02:00:00 9,9 9,1 8,0 16,3 13,4 4 2 8 5 ZZO 1013,1 14 0 0,0
22.05.2018 01:00:00 10,6 9,8 8,2 16,3 13,4 5 3 8 5 W 1013,3 18 0 0,0
22.05.2018 00:00:00 10,5 8,8 8,5 16,2 13,4 4 2 8 4 NNO 1013,2 5 0 0,0
21.05.2018 23:00:00 12,8 10,7 10,6 16,2 13,4 3 1 6 4 ONO 1013,0 20 0 0,0
21.05.2018 22:00:00 14,0 11,2 12,8 16,1 13,4 3 1 9 5 OZO 1012,2 4,5 0 0,0
21.05.2018 21:00:00 15,7 11,9 14,0 16,0 13,4 4 2 9 5 Z 1011,5 20 48 0,0
21.05.2018 20:00:00 16,3 10,6 16,5 15,9 13,4 2 1 11 6 WZW 1011,4 20 12 0,0
21.05.2018 19:00:00 18,8 10,4 20,2 15,8 13,3 8 4 21 11 N 1010,9 20 57 0,0
21.05.2018 18:00:00 18,6 11,2 17,7 15,7 13,4 9 5 21 11 N 1011,0 20 60 0,0
21.05.2018 17:00:00 16,2 13,3 14,2 15,6 13,3 10 5 31 17 NO 1011,2 20 7 2,0
21.05.2018 16:00:00 22,8 6,5 24,3 15,5 13,3 4 2 19 11 WNW 1009,9 20 43 0,0
21.05.2018 15:00:00 22,7 10,2 22,9 15,4 13,3 3 2 13 7 ZO 1009,8 20 26 0,0
21.05.2018 14:00:00 22,7 8,8 31,3 15,4 13,3 4 2 12 7 ONO 1010,1 19 60 0,0
21.05.2018 13:00:00 21,8 6,8 22,5 15,4 13,3 3 2 16 9 WNW 1011,0 20 27 0,0
21.05.2018 12:00:00 20,1 9,9 23,3 15,4 13,3 7 4 20 11 ZZW 1011,4 20 36 0,0
21.05.2018 11:00:00 20,5 11,1 21,8 15,5 13,3 9 5 15 8 O 1011,3 20 38 0,0
21.05.2018 10:00:00 17,4 11,2 17,9 15,6 13,3 10 6 16 9 OZO 1012,1 19 56 0,0
21.05.2018 09:00:00 12,9 9,9 13,6 15,7 13,3 7 4 16 9 O 1012,8 20 46 0,0
21.05.2018 08:00:00 10,5 9,4 6,9 15,7 13,3 10 5 16 9 OZO 1013,3 20 37 0,0
21.05.2018 07:00:00 7,7 7,1 4,0 15,8 13,3 6 4 10 6 O 1013,9 17 0 0,0
21.05.2018 06:00:00 8,0 7,2 4,7 15,9 13,3 4 2 10 6 OZO 1013,8 17 0 0,0
21.05.2018 05:00:00 8,2 7,6 5,2 15,9 13,3 8 4 11 6 O 1013,8 13 0 0,0
21.05.2018 04:00:00 7,6 6,7 4,6 16,0 13,3 2 1 8 4 ZZO 1014,1 1,5 0 0,0
21.05.2018 03:00:00 8,2 7,3 4,9 16,0 13,3 3 1 7 4 OZO 1014,3 8 0 0,0
21.05.2018 02:00:00 9,0 8,1 6,7 16,0 13,3 4 2 5 3 OZO 1014,6 12 0 0,0
21.05.2018 01:00:00 9,9 9,0 6,9 16,0 13,3 3 2 6 3 ZO 1014,9 20 0 0,0
21.05.2018 00:00:00 10,5 8,6 7,8 15,9 13,3 0 0 4 2 N 1015,1 19 0 0,0
20.05.2018 23:00:00 12,3 9,5 8,6 15,9 13,2 2 1 4 2 Z 1014,8 20 0 0,0
20.05.2018 22:00:00 14,2 9,4 9,9 15,8 13,3 0 0 9 5 N 1014,3 20 0 0,0
20.05.2018 21:00:00 17,1 9,0 13,7 15,6 13,3 6 4 22 12 NNO 1013,6 20 36 0,0
20.05.2018 20:00:00 19,9 8,9 19,5 15,5 13,2 13 7 27 15 NNO 1013,1 20 60 0,0
20.05.2018 19:00:00 20,6 7,6 20,5 15,4 13,3 15 8 27 14 ONO 1012,8 20 58 0,0
20.05.2018 18:00:00 21,4 9,3 20,2 15,3 13,2 13 7 28 15 ONO 1013,2 20 50 0,0
20.05.2018 17:00:00 21,6 8,5 21,1 15,1 13,2 14 8 25 13 ONO 1013,6 20 50 0,0
20.05.2018 16:00:00 21,8 9,7 20,5 15,0 13,2 12 7 26 14 ONO 1014,4 20 51 0,0
20.05.2018 15:00:00 20,9 9,8 23,2 15,0 13,2 13 7 28 15 ONO 1015,3 20 49 0,0
20.05.2018 14:00:00 20,6 9,8 24,1 14,9 13,2 17 9 30 16 NO 1015,8 20 58 0,0
20.05.2018 13:00:00 20,1 9,9 26,2 15,0 13,2 15 8 31 17 O 1016,2 5 60 0,0
20.05.2018 12:00:00 19,4 10,4 26,1 15,0 13,2 13 7 24 13 O 1016,6 6 60 0,0
20.05.2018 11:00:00 18,0 11,3 23,6 15,1 13,2 6 3 11 6 ONO 1017,1 9 60 0,0
20.05.2018 10:00:00 14,5 9,5 17,9 15,2 13,2 2 1 5 3 NO 1018,0 18 60 0,0
20.05.2018 09:00:00 10,9 8,6 11,1 15,3 13,2 2 1 5 3 OZO 1018,8 20 60 0,0
20.05.2018 08:00:00 7,1 6,7 3,8 15,4 13,2 3 2 5 3 O 1019,4 12 60 0,0
20.05.2018 07:00:00 3,7 3,1 0,4 15,4 13,2 4 2 6 3 OZO 1019,8 6 21 0,0
20.05.2018 06:00:00 3,4 2,7 0,6 15,5 13,2 2 1 4 2 O 1019,6 0,8 0 0,0
20.05.2018 05:00:00 4,1 3,4 1,2 15,6 13,2 0 0 5 3 N 1019,6 9 0 0,0
20.05.2018 04:00:00 4,7 4,0 1,9 15,7 13,2 3 1 7 4 OZO 1019,6 2,2 0 0,0
20.05.2018 03:00:00 5,1 4,2 2,2 15,7 13,2 0 0 4 2 N 1019,9 7 0 0,0
20.05.2018 02:00:00 5,6 4,4 3,0 15,7 13,2 0 0 7 4 N 1020,3 12 0 0,0
20.05.2018 01:00:00 7,1 6,0 3,9 15,7 13,2 0 0 4 2 N 1020,1 19 0 0,0
20.05.2018 00:00:00 7,9 6,4 4,4 15,7 13,1 0 0 4 2 N 1019,9 19 0 0,0
19.05.2018 23:00:00 9,5 6,0 5,8 15,6 13,1 0 0 4 2 N 1019,4 20 0 0,0
19.05.2018 22:00:00 11,9 6,8 7,5 15,5 13,1 0 0 9 5 N 1018,6 20 0 0,0
19.05.2018 21:00:00 14,8 6,6 12,4 15,4 13,1 7 4 17 9 N 1017,9 20 27 0,0
19.05.2018 20:00:00 17,6 5,8 17,2 15,3 13,1 13 7 24 13 NNO 1017,2 20 58 0,0
19.05.2018 19:00:00 18,6 7,4 19,3 15,2 13,1 14 8 26 14 NNO 1016,9 20 60 0,0
19.05.2018 18:00:00 19,7 7,1 21,5 15,0 13,1 13 7 25 14 N 1016,9 20 60 0,0
19.05.2018 17:00:00 19,7 8,4 21,8 15,0 13,1 15 8 26 14 N 1017,0 20 60 0,0
19.05.2018 16:00:00 19,8 8,8 23,2 14,8 13,1 13 7 25 14 N 1017,3 20 60 0,0
19.05.2018 15:00:00 19,5 7,9 25,8 14,8 13,1 12 7 24 13 NNO 1017,7 20 60 0,0
19.05.2018 14:00:00 19,0 8,0 25,5 14,8 13,1 12 6 29 16 NO 1018,0 20 60 0,0
19.05.2018 13:00:00 18,5 6,3 23,6 14,8 13,1 12 7 27 15 NO 1018,4 20 60 0,0
19.05.2018 12:00:00 17,5 8,4 22,1 14,8 13,1 10 5 23 12 NNO 1018,6 20 55 0,0
19.05.2018 11:00:00 16,5 7,9 20,3 14,9 13,1 7 4 21 11 N 1018,8 20 43 0,0
19.05.2018 10:00:00 14,7 9,3 18,8 15,0 13,1 0 0 5 3 N 1019,2 20 60 0,0
19.05.2018 09:00:00 11,2 8,9 12,5 15,1 13,1 0 0 4 2 N 1019,8 20 60 0,0
19.05.2018 08:00:00 7,7 7,3 4,0 15,2 13,1 0 0 4 2 N 1020,1 13 60 0,0
19.05.2018 07:00:00 4,0 3,4 1,3 15,3 13,1 3 2 4 2 OZO 1020,6 0,5 20 0,0
19.05.2018 06:00:00 4,0 3,3 0,9 15,3 13,1 0 0 2 1 N 1020,2 5 0 0,0
19.05.2018 05:00:00 4,7 3,8 1,6 15,4 13,1 0 0 2 1 N 1020,0 6 0 0,0
19.05.2018 04:00:00 5,5 4,6 2,3 15,4 13,1 2 1 4 2 ZO 1020,0 1,5 0 0,0
19.05.2018 03:00:00 6,1 5,2 3,1 15,4 13,0 0 0 5 3 N 1020,3 9 0 0,0
19.05.2018 02:00:00 7,2 6,1 4,4 15,4 13,0 0 0 5 3 N 1020,5 13 0 0,0
19.05.2018 01:00:00 8,5 7,0 5,5 15,4 13,0 0 0 5 3 N 1020,4 15 0 0,0
19.05.2018 00:00:00 9,6 8,0 6,5 15,4 13,0 0 0 4 2 N 1020,5 20 0 0,0
18.05.2018 23:00:00 10,5 8,1 6,8 15,3 13,0 0 0 3 2 N 1020,3 20 0 0,0
18.05.2018 22:00:00 12,6 8,5 8,1 15,2 13,0 2 1 8 4 N 1019,4 20 0 0,0
18.05.2018 21:00:00 15,4 8,4 12,9 15,1 13,0 6 4 22 12 N 1018,5 20 20 0,0
18.05.2018 20:00:00 18,3 8,8 18,6 14,9 13,0 10 6 23 12 N 1018,0 20 60 0,0
18.05.2018 19:00:00 19,3 9,2 20,6 14,7 13,0 13 7 24 13 N 1017,5 20 60 0,0
18.05.2018 18:00:00 20,0 10,4 21,7 14,6 13,0 13 7 26 14 N 1017,4 20 60 0,0
18.05.2018 17:00:00 20,1 10,2 22,1 14,4 13,0 13 7 30 16 N 1017,6 20 55 0,0
18.05.2018 16:00:00 20,5 11,1 21,7 14,3 13,0 11 6 26 14 NNO 1017,7 20 36 0,0
18.05.2018 15:00:00 20,2 8,8 26,0 14,2 13,0 8 4 20 11 NNO 1018,0 19 58 0,0
18.05.2018 14:00:00 19,8 9,7 25,3 14,2 13,0 9 5 21 12 NO 1018,7 20 54 0,0
18.05.2018 13:00:00 18,6 10,2 24,4 14,2 13,0 8 4 20 11 ONO 1019,4 20 58 0,0
18.05.2018 12:00:00 18,3 9,9 25,5 14,2 13,0 8 4 17 9 NNO 1019,6 20 60 0,0
18.05.2018 11:00:00 16,2 11,8 22,9 14,2 13,0 4 2 12 7 W 1019,8 17 60 0,0
18.05.2018 10:00:00 13,7 10,9 16,3 14,3 13,0 3 1 8 5 ONO 1020,4 14 57 0,0
18.05.2018 09:00:00 11,0 10,5 9,6 14,3 13,0 3 1 5 3 O 1020,6 4,9 51 0,0
18.05.2018 08:00:00 7,9 7,5 7,0 14,4 13,0 0 0 6 3 N 1021,3 0,3 0 0,0
18.05.2018 07:00:00 6,5 6,1 6,4 14,5 13,0 4 2 6 4 ZO 1021,5 0,2 0 0,0
18.05.2018 06:00:00 6,6 6,0 6,5 14,5 13,0 2 1 7 4 O 1021,4 0,1 0 0,0
18.05.2018 05:00:00 7,0 6,4 6,3 14,5 13,0 0 0 5 3 N 1021,3 0,1 0 0,0
18.05.2018 04:00:00 6,1 5,5 3,4 14,6 13,0 2 1 5 3 O 1021,4 0,1 0 0,0
18.05.2018 03:00:00 6,6 5,7 3,7 14,6 13,0 0 0 4 2 N 1021,3 1,5 0 0,0
18.05.2018 02:00:00 8,2 7,6 4,7 14,6 13,0 0 0 4 2 N 1021,5 3,4 0 0,0
18.05.2018 01:00:00 7,5 6,6 4,6 14,6 13,0 4 2 5 3 ZO 1021,8 1,6 0 0,0
18.05.2018 00:00:00 8,7 7,8 5,8 14,6 13,0 2 1 8 4 Z 1021,7 3,8 0 0,0
17.05.2018 23:00:00 10,1 8,4 7,0 14,6 13,0 4 2 14 8 Z 1021,3 6 0 0,0
17.05.2018 22:00:00 12,6 9,8 11,8 14,5 13,0 9 5 20 11 NNO 1020,6 11 0 0,0
17.05.2018 21:00:00 12,8 10,2 12,1 14,5 13,0 7 4 22 12 NNO 1019,9 11 5 0,0
17.05.2018 20:00:00 14,4 10,6 14,4 14,5 13,0 14 8 24 13 N 1019,5 15 19 0,0
17.05.2018 19:00:00 15,9 11,1 16,5 14,4 13,0 12 7 21 12 N 1019,3 17 25 0,0
17.05.2018 18:00:00 15,9 10,4 17,5 14,4 13,0 11 6 19 10 NNO 1019,5 18 17 0,0
17.05.2018 17:00:00 16,2 11,4 15,6 14,4 13,0 5 3 20 11 NNO 1019,8 17 18 0,0
17.05.2018 16:00:00 14,2 10,6 15,7 14,4 13,0 13 7 24 13 NNO 1020,4 15 1 0,0
17.05.2018 15:00:00 14,3 10,7 14,7 14,4 13,0 11 6 18 10 NNO 1020,3 13 0 0,0
17.05.2018 14:00:00 13,0 10,4 13,2 14,4 13,0 9 5 19 10 NNO 1020,6 16 0 0,0
17.05.2018 13:00:00 12,6 10,3 13,2 14,4 13,0 12 7 23 12 N 1020,7 11 0 0,0
17.05.2018 12:00:00 12,4 9,9 13,4 14,5 13,0 12 6 27 15 NNO 1020,5 13 0 0,0
17.05.2018 11:00:00 12,6 10,1 13,0 14,4 13,0 15 8 28 15 NNO 1020,3 12 0 0,0
17.05.2018 10:00:00 12,9 11,1 13,2 14,5 13,0 10 6 22 12 N 1019,7 8 0 0,0
17.05.2018 09:00:00 12,7 11,3 12,4 14,5 13,0 13 7 25 13 N 1019,3 7 0 0,0
17.05.2018 08:00:00 12,2 11,4 12,0 14,5 13,0 9 5 22 12 N 1019,2 3,2 0 0,0
17.05.2018 07:00:00 11,9 11,3 11,8 14,6 13,0 3 1 5 3 WNW 1018,9 1,7 0 0,0
17.05.2018 06:00:00 11,8 11,2 11,4 14,6 13,0 6 3 11 6 N 1018,8 3,3 0 0,0
17.05.2018 05:00:00 11,2 10,6 10,4 14,6 13,0 3 2 12 6 NNO 1018,7 3,0 0 0,0
17.05.2018 04:00:00 10,2 9,7 7,1 14,7 13,0 0 0 4 2 N 1019,2 3,5 0 0,0
17.05.2018 03:00:00 8,5 7,7 6,2 14,6 13,0 0 0 7 4 N 1019,5 0,3 0 0,0
17.05.2018 02:00:00 8,4 7,3 5,3 14,7 13,0 0 0 4 2 N 1019,6 0,6 0 0,0
17.05.2018 01:00:00 9,6 8,4 6,2 14,6 13,0 0 0 5 3 N 1019,3 1,0 0 0,0

tt = temperatuur
td = dauwpunt
tt 5cm = temperatuur 5cm
tt -20cm = temperatuur -20cm
tt -100cm = temperatuur -100cm
ff = windsnelheid
fx = windstoten
dd = windrichting
ppp = luchtdruk
vv = zicht
sd = Zonneschijnduur
rr = neerslag

Weerstations in de omgeving